Weather History for Denver, CO

Change the Weather History Date:

Sunday, November 28, 2010

  Actual Average Record
Temperature  
Mean Temperature 41 °F 33 °F  
Max Temperature 55 °F 46 °F 72 °F (1901)
Min Temperature 26 °F 20 °F -10 °F (1877)
Degree Days  
Heating Degree Days 24 32  
Month to date heating degree days 713 736  
Since 1 July heating degree days 1048 1317  
Cooling Degree Days 0 0  
Month to date cooling degree days 0 0  
Year to date cooling degree days 870 769  
Moisture  
Dew Point 16 °F    
Average Humidity 51    
Maximum Humidity 92    
Minimum Humidity 9    
Precipitation  
Precipitation T in 0.02 in 0.28 in (1891)
Month to date precipitation 0.50 0.58  
Year to date precipitation 12.65 13.92  
Snow  
Snow T in - - ()
Month to date snowfall 1.5  
Since 1 July snowfall 1.5  
Since 1 September snowfall 1.5  
Snow Depth 0.00 in    
Sea Level Pressure  
Sea Level Pressure 29.38 in    
Wind  
Wind Speed 11 mph (NW)    
Max Wind Speed 30 mph    
Max Gust Speed 36 mph    
Visibility 8 miles    
Events Snow    
T = Trace of Precipitation, MM = Missing Value Source: NWS Daily Summary

Daily Weather History Graph

Daily Weather History Graph

Search for Another Location

Airport:

Trip Planner

Search our weather history database for the weather conditions in past years. The results will help you decide how hot, cold, wet, or windy it might be!

Date:

Astronomy

Nov. 28, 2010 Rise Set
Actual Time 6:57 AM MST 4:35 PM MST
Civil Twilight 6:28 AM MST 5:04 PM MST
Nautical Twilight 5:54 AM MST 5:38 PM MST
Astronomical Twilight 5:22 AM MST 6:10 PM MST
Moon No Moon Rise 12:07 PM MST
Length of Visible Light 10h 36m
Length of Day
9h 37m
Waning Gibbous, 51% of the Moon is Illuminated
Nov 28
Waning Gibbous
Nov 28
Last Quarter
Dec 5
New
Dec 13
First Quarter
Dec 21
Full

Hourly Weather History & Observations

Time (MST) Temp. Windchill Dew Point Humidity Pressure Visibility Wind Dir Wind Speed Gust Speed Precip Events Conditions
12:53 AM 32.0 °F 24.2 °F 10.9 °F 42% 29.47 in 10.0 mi West 9.2 mph - N/A   Mostly Cloudy
1:53 AM 30.0 °F - 12.0 °F 47% 29.46 in 10.0 mi Calm Calm - N/A   Mostly Cloudy
2:53 AM 30.9 °F 26.2 °F 9.0 °F 40% 29.43 in 10.0 mi South 4.6 mph - N/A   Mostly Cloudy
3:53 AM 32.0 °F 24.8 °F 6.1 °F 34% 29.41 in 10.0 mi South 8.1 mph - N/A   Mostly Cloudy
4:53 AM 35.1 °F 26.9 °F 3.9 °F 27% 29.41 in 10.0 mi SSW 11.5 mph - N/A   Mostly Cloudy
5:53 AM 32.0 °F 24.2 °F 3.9 °F 31% 29.40 in 10.0 mi WSW 9.2 mph - N/A   Mostly Cloudy
6:53 AM 37.0 °F 29.3 °F 1.9 °F 23% 29.42 in 10.0 mi South 11.5 mph - N/A   Scattered Clouds
7:53 AM 34.0 °F 26.6 °F 5.0 °F 30% 29.37 in 10.0 mi SSE 9.2 mph - N/A   Partly Cloudy
8:53 AM 46.9 °F - 3.0 °F 16% 29.31 in 10.0 mi SSW 15.0 mph - N/A   Partly Cloudy
9:53 AM 51.1 °F - -0.9 °F 12% 29.26 in 10.0 mi SSW 13.8 mph - N/A   Scattered Clouds
10:53 AM 53.1 °F - -2.9 °F 10% 29.23 in 10.0 mi South 21.9 mph - N/A   Scattered Clouds
11:53 AM 54.0 °F - -2.9 °F 10% 29.19 in 10.0 mi South 17.3 mph 26.5 mph N/A   Scattered Clouds
12:53 PM 54.0 °F - -6.0 °F 8% 29.16 in 10.0 mi SW 15.0 mph 26.5 mph N/A   Mostly Cloudy
1:38 PM 48.2 °F - 12.2 °F 24% 29.25 in 10.0 mi NW 23.0 mph 28.8 mph N/A   Mostly Cloudy
1:53 PM 45.0 °F 36.9 °F 10.9 °F 25% 29.21 in 10.0 mi WNW 20.7 mph 28.8 mph N/A   Mostly Cloudy
2:36 PM 46.4 °F 39.5 °F 8.6 °F 22% 29.27 in 10.0 mi North 17.3 mph 24.2 mph N/A   Mostly Cloudy
2:53 PM 46.0 °F 40.6 °F 9.0 °F 22% 29.24 in 10.0 mi North 11.5 mph - N/A   Mostly Cloudy
3:53 PM 41.0 °F 30.9 °F 10.0 °F 28% 29.32 in 10.0 mi North 24.2 mph 32.2 mph N/A   Overcast
4:53 PM 37.9 °F 28.2 °F 19.9 °F 48% 29.35 in 10.0 mi North 18.4 mph 25.3 mph N/A   Overcast
5:12 PM 35.6 °F 24.5 °F 24.8 °F 65% 29.41 in 7.0 mi North 20.7 mph 29.9 mph 0.00 in Snow Light Snow
5:32 PM 33.8 °F 23.2 °F 26.6 °F 75% 29.42 in 9.0 mi NNW 17.3 mph - 0.00 in   Overcast
5:53 PM 36.0 °F 26.3 °F 25.0 °F 64% 29.42 in 10.0 mi NW 16.1 mph - 0.00 in   Overcast
6:09 PM 35.6 °F 23.4 °F 24.8 °F 65% 29.43 in 2.5 mi NW 25.3 mph 31.1 mph 0.00 in Snow Light Snow
6:15 PM 33.8 °F 20.8 °F 26.6 °F 75% 29.43 in 4.0 mi NW 26.5 mph 35.7 mph 0.00 in Snow Light Snow
6:53 PM 33.1 °F - 25.0 °F 72% 29.41 in 10.0 mi Calm Calm - 0.00 in   Overcast
7:53 PM 33.1 °F 26.1 °F 24.1 °F 70% 29.45 in 10.0 mi NNW 8.1 mph - N/A   Mostly Cloudy
8:01 PM 33.8 °F 22.8 °F 26.6 °F 75% 29.46 in 8.0 mi North 18.4 mph 21.9 mph 0.00 in Snow Light Snow
8:17 PM 32.0 °F 21.6 °F 26.6 °F 80% 29.46 in 6.0 mi North 15.0 mph 23.0 mph 0.00 in Snow Light Snow
8:23 PM 32.0 °F 21.6 °F 26.6 °F 80% 29.46 in 3.0 mi North 15.0 mph 23.0 mph 0.00 in Snow Light Snow
8:26 PM 32.0 °F 22.1 °F 26.6 °F 80% 29.46 in 2.0 mi North 13.8 mph - 0.00 in Snow Light Snow
8:51 PM 32.0 °F 22.5 °F 28.4 °F 87% 29.47 in 2.0 mi NNE 12.7 mph 18.4 mph 0.00 in   Overcast
8:53 PM 32.0 °F 23.6 °F 28.0 °F 85% 29.43 in 2.0 mi NNE 10.4 mph 18.4 mph 0.00 in   Overcast
9:14 PM 30.2 °F 21.3 °F 28.4 °F 93% 29.47 in 2.0 mi NNE 10.4 mph - 0.00 in Snow Light Snow
9:30 PM 30.2 °F 24.3 °F 28.4 °F 93% 29.48 in 10.0 mi NNE 5.8 mph - 0.00 in   Overcast
9:53 PM 28.9 °F 23.9 °F 27.0 °F 92% 29.44 in 9.0 mi North 4.6 mph - 0.00 in   Mostly Cloudy
10:53 PM 30.0 °F 25.2 °F 26.1 °F 85% 29.45 in 10.0 mi WNW 4.6 mph - N/A   Mostly Cloudy
11:53 PM 27.0 °F 20.5 °F 21.9 °F 81% 29.48 in 10.0 mi NNE 5.8 mph - N/A   Mostly Cloudy